Time,TemperatureF,DewpointF,PressureIn,WindDirection,WindDirectionDegrees,WindSpeedMPH,WindSpeedGustMPH,Humidity,HourlyPrecipIn,Conditions,Clouds,dailyrainin,SolarRadiationWatts/m^2,SoftwareType,DateUTC
2013-04-04 00:01:00,50.5,49.0,30.12,SSW,209,7.0,8.0,95,0.00,,,0.00,0,weatherlink.com 1.10,2013-04-04 07:01:00,
2013-04-04 00:16:00,50.3,49.0,30.12,South,191,2.0,11.0,94,0.00,,,0.00,0,weatherlink.com 1.10,2013-04-04 07:16:00,
2013-04-04 00:31:00,50.5,49.0,30.11,South,186,3.0,11.0,95,0.00,,,0.00,0,weatherlink.com 1.10,2013-04-04 07:31:00,
2013-04-04 00:46:00,50.3,49.0,30.11,South,188,4.0,9.0,95,0.00,,,0.00,0,weatherlink.com 1.10,2013-04-04 07:46:00,
2013-04-04 01:01:00,50.4,49.0,30.12,SSW,192,5.0,10.0,95,0.00,,,0.00,0,weatherlink.com 1.10,2013-04-04 08:01:00,
2013-04-04 01:16:00,50.3,49.0,30.12,South,184,3.0,14.0,95,0.00,,,0.00,0,weatherlink.com 1.10,2013-04-04 08:16:00,
2013-04-04 01:32:00,50.4,49.0,30.12,South,188,9.0,13.0,95,0.00,,,0.00,0,weatherlink.com 1.10,2013-04-04 08:32:00,
2013-04-04 01:47:00,50.4,49.0,30.12,South,174,4.0,9.0,95,0.00,,,0.00,0,weatherlink.com 1.10,2013-04-04 08:47:00,
2013-04-04 02:02:00,50.4,49.0,30.11,South,176,3.0,11.0,95,0.00,,,0.00,0,weatherlink.com 1.10,2013-04-04 09:02:00,
2013-04-04 02:17:00,50.5,49.0,30.11,SSE,163,3.0,7.0,96,0.00,,,0.00,0,weatherlink.com 1.10,2013-04-04 09:17:00,
2013-04-04 02:32:00,50.6,50.0,30.09,SE,145,3.0,9.0,96,0.00,,,0.00,0,weatherlink.com 1.10,2013-04-04 09:32:00,
2013-04-04 02:47:00,50.8,50.0,30.09,South,181,7.0,11.0,96,0.00,,,0.00,0,weatherlink.com 1.10,2013-04-04 09:47:00,
2013-04-04 03:02:00,50.8,50.0,30.09,SSE,161,2.0,9.0,96,0.01,,,0.01,0,weatherlink.com 1.10,2013-04-04 10:02:00,
2013-04-04 03:17:00,50.8,50.0,30.09,South,180,0.0,8.0,96,0.01,,,0.01,0,weatherlink.com 1.10,2013-04-04 10:17:00,
2013-04-04 03:32:00,50.9,50.0,30.11,SSW,193,10.0,14.0,96,0.01,,,0.01,0,weatherlink.com 1.10,2013-04-04 10:32:00,
2013-04-04 03:47:00,51.1,50.0,30.11,South,181,6.0,16.0,97,0.02,,,0.02,0,weatherlink.com 1.10,2013-04-04 10:47:00,
2013-04-04 04:02:00,51.2,50.0,30.11,South,183,3.0,16.0,97,0.01,,,0.02,0,weatherlink.com 1.10,2013-04-04 11:02:00,
2013-04-04 04:17:00,51.1,50.0,30.11,South,178,9.0,17.0,97,0.01,,,0.02,0,weatherlink.com 1.10,2013-04-04 11:17:00,
2013-04-04 04:32:00,51.0,50.0,30.09,SSE,148,4.0,12.0,97,0.02,,,0.03,0,weatherlink.com 1.10,2013-04-04 11:32:00,
2013-04-04 04:47:00,51.2,50.0,30.09,South,186,6.0,11.0,97,0.01,,,0.03,0,weatherlink.com 1.10,2013-04-04 11:47:00,
2013-04-04 05:02:00,51.4,51.0,30.09,SSE,159,0.0,6.0,97,0.02,,,0.04,0,weatherlink.com 1.10,2013-04-04 12:02:00,
2013-04-04 05:17:00,51.5,51.0,30.08,SSE,159,0.0,1.0,97,0.03,,,0.05,0,weatherlink.com 1.10,2013-04-04 12:17:00,
2013-04-04 05:32:00,51.8,51.0,30.08,SSE,159,0.0,2.0,97,0.02,,,0.05,0,weatherlink.com 1.10,2013-04-04 12:32:00,
2013-04-04 05:47:00,52.2,51.0,30.08,SSE,148,0.0,4.0,97,0.03,,,0.06,0,weatherlink.com 1.10,2013-04-04 12:47:00,
2013-04-04 06:02:00,52.3,52.0,30.09,SSE,148,1.0,4.0,97,0.03,,,0.07,0,weatherlink.com 1.10,2013-04-04 13:02:00,
2013-04-04 06:17:00,52.3,52.0,30.09,SSE,148,2.0,4.0,97,0.02,,,0.07,0,weatherlink.com 1.10,2013-04-04 13:17:00,
2013-04-04 06:32:00,52.0,51.0,30.09,SE,134,3.0,6.0,97,0.02,,,0.07,0,weatherlink.com 1.10,2013-04-04 13:32:00,
2013-04-04 06:47:00,52.1,51.0,30.09,SE,134,0.0,4.0,97,0.01,,,0.07,0,weatherlink.com 1.10,2013-04-04 13:47:00,
2013-04-04 07:02:00,52.1,51.0,30.10,SE,134,0.0,3.0,97,0.00,,,0.07,0,weatherlink.com 1.10,2013-04-04 14:02:00,
2013-04-04 07:32:00,52.2,51.0,30.10,SE,126,1.0,5.0,97,0.01,,,0.08,18,weatherlink.com 1.10,2013-04-04 14:32:00,
2013-04-04 07:47:00,52.4,52.0,30.11,SE,126,0.0,4.0,97,0.01,,,0.08,25,weatherlink.com 1.10,2013-04-04 14:47:00,
2013-04-04 08:02:00,52.7,52.0,30.11,SE,126,0.0,0.0,97,0.01,,,0.08,26,weatherlink.com 1.10,2013-04-04 15:02:00,
2013-04-04 08:18:00,53.0,52.0,30.12,SE,126,0.0,5.0,97,0.00,,,0.08,23,weatherlink.com 1.10,2013-04-04 15:18:00,
2013-04-04 08:33:00,53.7,53.0,30.12,SE,128,2.0,6.0,97,0.00,,,0.08,60,weatherlink.com 1.10,2013-04-04 15:33:00,
2013-04-04 08:48:00,54.8,54.0,30.13,ESE,122,1.0,9.0,96,0.00,,,0.08,67,weatherlink.com 1.10,2013-04-04 15:48:00,
2013-04-04 09:03:00,54.5,53.0,30.13,South,173,1.0,10.0,95,0.00,,,0.08,51,weatherlink.com 1.10,2013-04-04 16:03:00,
2013-04-04 09:18:00,54.5,53.0,30.14,South,191,0.0,9.0,95,0.00,,,0.08,88,weatherlink.com 1.10,2013-04-04 16:18:00,
2013-04-04 09:33:00,54.9,54.0,30.14,South,186,8.0,11.0,95,0.00,,,0.08,56,weatherlink.com 1.10,2013-04-04 16:33:00,
2013-04-04 09:48:00,55.2,54.0,30.14,South,169,1.0,8.0,94,0.00,,,0.08,83,weatherlink.com 1.10,2013-04-04 16:48:00,
2013-04-04 10:03:00,54.4,53.0,30.14,South,171,3.0,17.0,94,0.00,,,0.08,127,weatherlink.com 1.10,2013-04-04 17:03:00,
2013-04-04 10:18:00,54.1,53.0,30.15,South,190,9.0,14.0,95,0.00,,,0.08,190,weatherlink.com 1.10,2013-04-04 17:18:00,
2013-04-04 10:33:00,54.6,53.0,30.16,South,182,4.0,14.0,95,0.00,,,0.08,339,weatherlink.com 1.10,2013-04-04 17:33:00,
2013-04-04 10:48:00,55.1,54.0,30.16,South,189,3.0,10.0,94,0.00,,,0.08,309,weatherlink.com 1.10,2013-04-04 17:48:00,
2013-04-04 11:49:00,56.9,54.0,30.17,South,189,17.0,18.0,90,0.00,,,0.08,707,weatherlink.com 1.10,2013-04-04 18:49:00,
2013-04-04 12:04:00,56.9,54.0,30.16,South,183,9.0,17.0,89,0.00,,,0.08,722,weatherlink.com 1.10,2013-04-04 19:04:00,
2013-04-04 12:19:00,56.9,54.0,30.16,South,188,7.0,20.0,89,0.00,,,0.08,768,weatherlink.com 1.10,2013-04-04 19:19:00,
2013-04-04 12:49:00,56.8,53.0,30.16,South,190,12.0,18.0,88,0.00,,,0.08,633,weatherlink.com 1.10,2013-04-04 19:49:00,
2013-04-04 13:04:00,57.1,54.0,30.16,SSW,203,9.0,16.0,88,0.00,,,0.08,527,weatherlink.com 1.10,2013-04-04 20:04:00,
2013-04-04 13:19:00,57.1,54.0,30.16,SSW,193,15.0,19.0,88,0.00,,,0.08,751,weatherlink.com 1.10,2013-04-04 20:19:00,
2013-04-04 13:49:00,56.7,54.0,30.16,South,170,5.0,17.0,89,0.00,,,0.08,485,weatherlink.com 1.10,2013-04-04 20:49:00,
2013-04-04 14:19:00,57.6,54.0,30.16,South,188,10.0,17.0,87,0.00,,,0.08,773,weatherlink.com 1.10,2013-04-04 21:19:00,
2013-04-04 14:34:00,57.3,54.0,30.16,South,178,9.0,19.0,87,0.00,,,0.08,798,weatherlink.com 1.10,2013-04-04 21:34:00,
2013-04-04 14:49:00,58.7,54.0,30.16,SSW,198,11.0,15.0,85,0.00,,,0.08,789,weatherlink.com 1.10,2013-04-04 21:49:00,
2013-04-04 15:04:00,57.9,54.0,30.16,SSW,196,7.0,16.0,85,0.00,,,0.08,371,weatherlink.com 1.10,2013-04-04 22:04:00,
2013-04-04 15:19:00,57.8,54.0,30.15,SSW,196,9.0,14.0,86,0.00,,,0.08,642,weatherlink.com 1.10,2013-04-04 22:19:00,
2013-04-04 15:34:00,57.8,54.0,30.15,South,182,9.0,15.0,86,0.00,,,0.08,552,weatherlink.com 1.10,2013-04-04 22:34:00,
2013-04-04 15:49:00,58.3,54.0,30.15,SSW,194,7.0,11.0,86,0.00,,,0.08,547,weatherlink.com 1.10,2013-04-04 22:49:00,
2013-04-04 16:04:00,57.1,53.0,30.15,SSW,198,6.0,11.0,87,0.00,,,0.08,250,weatherlink.com 1.10,2013-04-04 23:04:00,
2013-04-04 16:19:00,56.9,54.0,30.15,SSW,203,4.0,9.0,89,0.00,,,0.08,369,weatherlink.com 1.10,2013-04-04 23:19:00,
2013-04-04 16:34:00,57.5,54.0,30.15,South,188,3.0,9.0,89,0.00,,,0.08,338,weatherlink.com 1.10,2013-04-04 23:34:00,
2013-04-04 16:49:00,57.8,54.0,30.15,South,184,0.0,2.0,88,0.00,,,0.08,171,weatherlink.com 1.10,2013-04-04 23:49:00,
2013-04-04 17:19:00,56.9,54.0,30.15,South,183,4.0,6.0,89,0.00,,,0.08,121,weatherlink.com 1.10,2013-04-05 00:19:00,
2013-04-04 17:34:00,56.5,54.0,30.15,South,183,3.0,5.0,90,0.00,,,0.08,88,weatherlink.com 1.10,2013-04-05 00:34:00,
2013-04-04 17:49:00,56.1,53.0,30.14,South,183,0.0,5.0,90,0.00,,,0.08,81,weatherlink.com 1.10,2013-04-05 00:49:00,
2013-04-04 18:04:00,56.2,54.0,30.14,South,183,0.0,5.0,91,0.00,,,0.08,90,weatherlink.com 1.10,2013-04-05 01:04:00,
2013-04-04 18:19:00,56.3,54.0,30.14,South,183,0.0,4.0,91,0.00,,,0.08,77,weatherlink.com 1.10,2013-04-05 01:19:00,
2013-04-04 19:04:00,55.7,54.0,30.14,South,183,0.0,1.0,93,0.00,,,0.08,33,weatherlink.com 1.10,2013-04-05 02:04:00,
2013-04-04 19:19:00,55.4,54.0,30.14,South,183,0.0,3.0,94,0.00,,,0.08,14,weatherlink.com 1.10,2013-04-05 02:19:00,
2013-04-04 19:34:00,55.3,54.0,30.14,South,183,0.0,3.0,94,0.00,,,0.08,0,weatherlink.com 1.10,2013-04-05 02:34:00,
2013-04-04 19:49:00,55.1,54.0,30.14,South,183,0.0,2.0,94,0.00,,,0.08,0,weatherlink.com 1.10,2013-04-05 02:49:00,
2013-04-04 20:04:00,54.9,53.0,30.15,South,183,0.0,3.0,94,0.00,,,0.08,0,weatherlink.com 1.10,2013-04-05 03:04:00,
2013-04-04 20:19:00,54.5,53.0,30.15,South,183,0.0,2.0,94,0.00,,,0.08,0,weatherlink.com 1.10,2013-04-05 03:19:00,
2013-04-04 20:34:00,54.5,53.0,30.16,South,183,0.0,1.0,94,0.00,,,0.08,0,weatherlink.com 1.10,2013-04-05 03:34:00,
2013-04-04 20:49:00,54.5,53.0,30.16,South,183,0.0,0.0,94,0.00,,,0.08,0,weatherlink.com 1.10,2013-04-05 03:49:00,
2013-04-04 21:04:00,54.5,53.0,30.16,South,183,0.0,2.0,94,0.00,,,0.08,0,weatherlink.com 1.10,2013-04-05 04:04:00,
2013-04-04 21:19:00,54.5,53.0,30.17,South,183,0.0,1.0,95,0.00,,,0.08,0,weatherlink.com 1.10,2013-04-05 04:19:00,
2013-04-04 21:34:00,54.3,53.0,30.17,South,183,0.0,2.0,94,0.00,,,0.08,0,weatherlink.com 1.10,2013-04-05 04:34:00,
2013-04-04 21:49:00,54.1,53.0,30.17,ESE,120,0.0,4.0,94,0.00,,,0.08,0,weatherlink.com 1.10,2013-04-05 04:49:00,
2013-04-04 22:04:00,53.9,53.0,30.18,ESE,120,0.0,2.0,95,0.00,,,0.08,0,weatherlink.com 1.10,2013-04-05 05:04:00,
2013-04-04 22:19:00,53.8,52.0,30.18,ESE,120,0.0,1.0,95,0.00,,,0.08,0,weatherlink.com 1.10,2013-04-05 05:19:00,
2013-04-04 22:34:00,53.8,52.0,30.18,ESE,120,0.0,1.0,95,0.00,,,0.08,0,weatherlink.com 1.10,2013-04-05 05:34:00,
2013-04-04 22:50:00,53.9,53.0,30.17,ESE,120,0.0,0.0,95,0.00,,,0.08,0,weatherlink.com 1.10,2013-04-05 05:50:00,
2013-04-04 23:04:00,54.0,53.0,30.18,ESE,120,0.0,0.0,95,0.00,,,0.08,0,weatherlink.com 1.10,2013-04-05 06:04:00,
2013-04-04 23:19:00,54.2,53.0,30.17,ESE,120,0.0,0.0,95,0.00,,,0.08,0,weatherlink.com 1.10,2013-04-05 06:19:00,
2013-04-04 23:34:00,54.4,53.0,30.18,ESE,120,0.0,0.0,95,0.00,,,0.08,0,weatherlink.com 1.10,2013-04-05 06:34:00,
2013-04-04 23:49:00,54.5,53.0,30.18,ESE,120,0.0,0.0,95,0.00,,,0.08,0,weatherlink.com 1.10,2013-04-05 06:49:00,